Owosso, MI

11:57 PM EDT on April 28, 2017 (GMT -0400)
Owosso

Weather History for KRNP - January, 2013

Change the Weather History Date:

Tuesday, January 15, 2013

  Actual Average (KFNT) Record (KFNT)
Temperature  
Mean Temperature 20 °F -  
Max Temperature 28 °F 26 °F 57 °F (1953)
Min Temperature 11 °F 11 °F -18 °F (1984)
Degree Days  
Heating Degree Days 46    
Moisture  
Dew Point 14 °F    
Average Humidity 80    
Maximum Humidity 92    
Minimum Humidity 58    
Precipitation  
Precipitation 0.00 in - - ()
Sea Level Pressure  
Sea Level Pressure 30.32 in    
Wind  
Wind Speed 1 mph (SSW)    
Max Wind Speed 6 mph    
Max Gust Speed -    
Visibility 9 miles    
Events      
Averages and records for this station are not official NWS values.
T = Trace of Precipitation, MM = Missing Value Source: NWS Daily Summary

Daily Weather History Graph

Daily Weather History Graph

Search for Another Location

Airport or City:

Trip Planner

Search our weather history database for the weather conditions in past years. The results will help you decide how hot, cold, wet, or windy it might be!

Date:

Astronomy

Jan. 15, 2013 Rise Set
Actual Time 8:04 AM EST 5:27 PM EST
Civil Twilight 7:33 AM EST 5:59 PM EST
Nautical Twilight 6:58 AM EST 6:34 PM EST
Astronomical Twilight 6:24 AM EST 7:08 PM EST
Moon 10:02 AM EST (1/15) 10:25 PM EST (1/15)
Length of Visible Light 10h 25m
Length of Day
9h 22m
Waxing Crescent, 19% of the Moon is Illuminated
Jan 15
Waxing Crescent
Jan 18
First Quarter
Jan 26
Full
Feb 3
Last Quarter
Feb 10
New

Hourly Weather History & Observations

Time (EST) Temp. Windchill Dew Point Humidity Pressure Visibility Wind Dir Wind Speed Gust Speed Precip Events Conditions
12:15 AM 16.5 °F 9.4 °F 13.6 °F 88% 30.37 in 10.0 mi West 4.6 mph - N/A   Clear
12:35 AM 17.2 °F 10.2 °F 14.0 °F 87% 30.37 in 10.0 mi West 4.6 mph - N/A   Clear
12:55 AM 16.7 °F - 13.3 °F 86% 30.37 in 10.0 mi Calm Calm - N/A   Clear
1:15 AM 17.6 °F - 14.0 °F 86% 30.37 in 10.0 mi Calm Calm - N/A   Clear
1:35 AM 15.6 °F - 12.6 °F 88% 30.37 in 10.0 mi Calm Calm - N/A   Clear
1:54 AM 15.4 °F - 12.7 °F 89% 30.37 in 7.0 mi Calm Calm - N/A   Clear
2:15 AM 14.4 °F - 12.0 °F 90% 30.38 in 5.0 mi Calm Calm - N/A   Clear
2:35 AM 14.2 °F - 11.8 °F 90% 30.38 in 7.0 mi Calm Calm - N/A   Clear
2:55 AM 14.0 °F - 11.7 °F 90% 30.38 in 7.0 mi Calm Calm - N/A   Clear
3:15 AM 14.4 °F - 12.0 °F 90% 30.38 in 7.0 mi Calm Calm - N/A   Clear
3:35 AM 14.5 °F - 12.2 °F 90% 30.37 in 7.0 mi Calm Calm - N/A   Clear
3:55 AM 14.4 °F - 12.0 °F 90% 30.37 in 10.0 mi Calm Calm - N/A   Clear
4:15 AM 14.0 °F - 11.3 °F 89% 30.37 in 7.0 mi Calm Calm - N/A   Clear
4:34 AM 14.0 °F - 11.8 °F 91% 30.37 in 7.0 mi Calm Calm - N/A   Clear
4:55 AM 12.9 °F - 10.6 °F 90% 30.38 in 7.0 mi Calm Calm - N/A   Clear
5:15 AM 12.9 °F - 10.4 °F 90% 30.38 in 7.0 mi Calm Calm - N/A   Clear
5:55 AM 12.6 °F - 9.7 °F 88% 30.38 in 7.0 mi Calm Calm - N/A   Clear
6:15 AM 12.9 °F - 10.4 °F 90% 30.38 in 7.0 mi Calm Calm - N/A   Clear
6:34 AM 13.5 °F - 10.8 °F 89% 30.37 in 7.0 mi Calm Calm - N/A   Clear
6:55 AM 12.9 °F - 10.4 °F 90% 30.38 in 7.0 mi Calm Calm - N/A   Clear
7:15 AM 12.2 °F - 9.5 °F 89% 30.38 in 7.0 mi Calm Calm - N/A   Clear
7:35 AM 12.0 °F - 9.3 °F 89% 30.39 in 7.0 mi Calm Calm - N/A   Clear
7:55 AM 11.8 °F - 8.8 °F 88% 30.39 in 10.0 mi Calm Calm - N/A   Clear
8:15 AM 12.2 °F - 9.3 °F 88% 30.38 in 7.0 mi Calm Calm - N/A   Clear
8:35 AM 12.4 °F - 9.9 °F 90% 30.39 in 7.0 mi Calm Calm - N/A   Clear
8:55 AM 13.8 °F - 11.1 °F 89% 30.40 in 7.0 mi Calm Calm - N/A   Clear
9:14 AM 14.7 °F - 12.4 °F 90% 30.40 in 7.0 mi Calm Calm - N/A   Clear
9:35 AM 17.6 °F - 15.4 °F 91% 30.41 in 10.0 mi Calm Calm - N/A   Clear
9:55 AM 19.4 °F 14.3 °F 17.2 °F 91% 30.41 in 10.0 mi South 3.5 mph - N/A   Clear
10:14 AM 20.1 °F - 18.0 °F 91% 30.40 in 10.0 mi Calm Calm - N/A   Clear
10:35 AM 21.4 °F - 19.4 °F 92% 30.40 in 10.0 mi Calm Calm - N/A   Clear
10:54 AM 22.8 °F - 20.5 °F 91% 30.40 in 10.0 mi Calm Calm - N/A   Clear
11:15 AM 24.4 °F - 20.3 °F 84% 30.40 in 10.0 mi Calm Calm - N/A   Clear
11:35 AM 24.8 °F - 16.9 °F 72% 30.40 in 10.0 mi Calm Calm - N/A   Scattered Clouds
11:54 AM 25.5 °F - 16.9 °F 70% 30.39 in 10.0 mi Calm Calm - N/A   Scattered Clouds
12:15 PM 26.4 °F - 16.2 °F 65% 30.37 in 10.0 mi Calm Calm - N/A   Clear
12:35 PM 26.2 °F - 15.3 °F 63% 30.37 in 10.0 mi Calm Calm - N/A   Clear
12:55 PM 26.6 °F - 15.6 °F 63% 30.34 in 10.0 mi Calm Calm - N/A   Clear
1:15 PM 27.9 °F - 16.9 °F 63% 30.32 in 10.0 mi Calm Calm - N/A   Clear
1:35 PM 27.5 °F - 15.6 °F 61% 30.32 in 10.0 mi Calm Calm - N/A   Clear
1:55 PM 28.4 °F 23.3 °F 16.3 °F 61% 30.33 in 10.0 mi South 4.6 mph - N/A   Clear
2:15 PM 28.8 °F - 16.0 °F 59% 30.32 in 10.0 mi Calm Calm - N/A   Clear
2:35 PM 28.8 °F 22.6 °F 16.3 °F 60% 30.32 in 10.0 mi South 5.8 mph - N/A   Clear
2:55 PM 28.4 °F 24.6 °F 16.0 °F 60% 30.30 in 10.0 mi South 3.5 mph - N/A   Clear
3:14 PM 28.4 °F 24.6 °F 15.3 °F 58% 30.30 in 10.0 mi South 3.5 mph - N/A   Clear
3:35 PM 28.4 °F 24.6 °F 15.6 °F 59% 30.29 in 10.0 mi South 3.5 mph - N/A   Clear
3:55 PM 28.2 °F - 15.1 °F 58% 30.29 in 10.0 mi Calm Calm - N/A   Clear
4:14 PM 28.0 °F 24.2 °F 14.9 °F 58% 30.29 in 10.0 mi South 3.5 mph - N/A   Clear
4:35 PM 28.0 °F 24.2 °F 15.1 °F 58% 30.28 in 10.0 mi South 3.5 mph - N/A   Clear
4:55 PM 27.7 °F - 14.9 °F 59% 30.27 in 10.0 mi Calm Calm - N/A   Clear
5:14 PM 27.0 °F - 14.5 °F 60% 30.27 in 10.0 mi Calm Calm - N/A   Clear
5:35 PM 27.0 °F - 15.6 °F 62% 30.27 in 10.0 mi Calm Calm - N/A   Clear
5:55 PM 26.6 °F - 16.0 °F 64% 30.27 in 10.0 mi Calm Calm - N/A   Clear
6:15 PM 26.2 °F - 15.8 °F 65% 30.27 in 10.0 mi Calm Calm - N/A   Clear
6:35 PM 25.7 °F - 15.8 °F 66% 30.27 in 10.0 mi Calm Calm - N/A   Clear
6:55 PM 25.3 °F - 15.4 °F 66% 30.27 in 10.0 mi Calm Calm - N/A   Clear
7:15 PM 25.0 °F - 15.3 °F 67% 30.27 in 10.0 mi Calm Calm - N/A   Clear
7:35 PM 22.1 °F - 15.6 °F 76% 30.26 in 10.0 mi Calm Calm - N/A   Clear
7:54 PM 21.0 °F - 15.6 °F 80% 30.24 in 10.0 mi Calm Calm - N/A   Clear
8:15 PM 20.1 °F - 16.0 °F 84% 30.24 in 10.0 mi Calm Calm - N/A   Clear
8:35 PM 19.6 °F - 15.8 °F 85% 30.23 in 10.0 mi Calm Calm - N/A   Clear
8:54 PM 20.3 °F - 17.1 °F 87% 30.21 in 10.0 mi Calm Calm - N/A   Clear
9:15 PM 18.3 °F - 14.9 °F 86% 30.20 in 10.0 mi Calm Calm - N/A   Clear
9:34 PM 18.0 °F - 15.3 °F 89% 30.19 in 10.0 mi Calm Calm - N/A   Clear
9:55 PM 17.1 °F - 14.4 °F 89% 30.17 in 10.0 mi Calm Calm - N/A   Clear
10:15 PM 18.1 °F - 15.8 °F 91% 30.17 in 7.0 mi Calm Calm - N/A   Clear
10:35 PM 17.4 °F - 15.1 °F 91% 30.17 in 7.0 mi Calm Calm - N/A   Clear
10:55 PM 17.1 °F - 14.9 °F 91% 30.17 in 7.0 mi Calm Calm - N/A   Clear
11:15 PM 17.2 °F - 15.1 °F 91% 30.15 in 7.0 mi Calm Calm - N/A   Clear
11:35 PM 17.1 °F - 14.9 °F 91% 30.15 in 7.0 mi Calm Calm - N/A   Clear
11:55 PM 16.5 °F - 14.4 °F 91% 30.14 in 7.0 mi Calm Calm - N/A   Clear